Location: Newark
(48.6461°N, 4.3644°W)
Time: 06:41:12
(UTC+00:00)

Transit 4A - Pass Details

Date: 29 January 2020
Orbit: 872 x 973 km, 66.8° (Epoch: 17 February)

Event Time Altitude Azimuth Distance (km) Brightness Sun altitude
Rises 12:05:45 0° 323° (NW) 3,481 10.4 23.1°
Reaches altitude 10° 12:08:59 10° 340° (NNW) 2,534 9.7 23.2°
Maximum altitude 12:13:11 20° 27° (NNE) 1,917 9.2 23.2°
Drops below altitude 10° 12:17:23 10° 73° (ENE) 2,529 10.1 23.3°
Sets 12:20:36 0° 90° (E) 3,472 10.9 23.3°
